Flag for Slovakia Weather past 2 weeks in Prievidza, Slovakia

Now
56 °F

Cool.


Feels Like: 56 °F
Forecast: 51 / 79 °F
Wind: 3 mph from North

Location: Prievidza

Current Time: Aug 1, 2015 at 6:42:46 AM

Latest Report: Aug 1, 2015 at 6:00 AM


Visibility: 31 mi

Pressure: 30.10 "Hg

Humidity: 67%

Dew point: 45 °F

Location of PrievidzaLocation

Historic Weather in Prievidza — Graph

°F

Prievidza temperature yesterday

Maximum temperature yesterday: 75 °F (at 2:00 PM)
Minimum temperature yesterday: 52 °F (at 1:00 AM)
Average temperature yesterday: 63 °F

Past Weeks' High & Low Weather Summary

 TemperatureHumidityPressure
High98 °F (Jul 22, 4:00 PM)96% (Jul 28, 3:00 AM)30.10 "Hg (Jul 28, 3:00 AM)
Low51 °F (Jul 27, 5:00 AM)24% (Jul 18, 5:00 PM)29.65 "Hg (Jul 25, 6:00 PM)
Average73 °F62%29.88 "Hg
* Reported Jul 17 5:00 AM — Aug 1 5:00 AM, Prievidza, Weather by CustomWeather, © 2015

Note: Actual official high and low records may vary slightly from our data, if they occured in-between our weather recording intervals... More about our weather records

Advertising

Prievidza weather history for previous 24 hours

 ConditionsComfort  
Time TempWeatherWind HumidityBarometerVisibility
5:00 AM
Sat, Aug 1
55 °FCool.3 mph69%30.09 "Hg31 mi
4:00 AM55 °FCool.2 mph70%30.09 "Hg31 mi
3:00 AM54 °FCool.3 mph72%30.09 "Hg31 mi
2:00 AM54 °FCool.3 mph74%30.09 "Hg28 mi
1:00 AM53 °FCool.N/A79%30.10 "Hg28 mi
12:00 AM54 °FCool.N/A76%30.09 "Hg31 mi
11:00 PM
Fri, Jul 31
56 °FCool.N/A73%30.08 "Hg28 mi
10:00 PM59 °FPassing clouds.2 mph69%30.06 "Hg31 mi
9:00 PM63 °FMild.No wind58%30.03 "HgN/A
8:00 PM70 °FPassing clouds.1 mph39%29.99 "Hg31 mi
7:00 PM73 °FMild.3 mph31%29.98 "HgN/A
6:00 PM74 °FScattered clouds.5 mph31%29.98 "Hg28 mi
5:00 PM73 °FScattered clouds.2 mph34%29.99 "Hg28 mi
4:00 PM73 °FScattered clouds.5 mph32%29.98 "Hg25 mi
3:00 PM74 °FScattered clouds.N/A29%29.99 "Hg25 mi
2:00 PM75 °FScattered clouds.5 mph30%29.99 "Hg22 mi
1:00 PM72 °FMild.2 mph38%30.00 "HgN/A
12:00 PM72 °FScattered clouds.N/A38%30.01 "Hg28 mi
11:00 AM69 °FScattered clouds.N/A48%30.02 "Hg25 mi
10:00 AM63 °FPartly sunny.No wind62%30.03 "Hg31 mi
9:00 AM59 °FOvercast.N/A80%30.03 "Hg25 mi
8:00 AM57 °FOvercast.No wind84%30.02 "Hg22 mi
7:00 AM56 °FCool.No wind81%30.02 "Hg28 mi
6:00 AM54 °FCool.N/A84%30.02 "Hg31 mi
Weather by CustomWeather, © 2015

See weather overviewHow to use our weather pages